• In Uzbekistan
  • List of Countries
  • For 7 days
  • Water Temperature
  • Satellite Maps
  • Weather Map
  • Weather Widgets
  • user-avatar
    Login

    Hourly Weather Balod

    Today, 19 October, Thursday

    Time Temperature Precipitation Wind Pressure Humidity
    00:00 +23°C° 0 mm 1 mps 727 mmHg 74%
    01:00 +23°C° 0 mm 1 mps 727 mmHg 75%
    02:00 +23°C° 0 mm 1 mps 727 mmHg 76%
    03:00 +23°C° 0 mm 1 mps 727 mmHg 77%
    04:00 +23°C° 0 mm 1 mps 727 mmHg 79%
    05:00 +22°C° 0 mm 1 mps 727 mmHg 83%
    06:00 +24°C° 0 mm 2 mps 727 mmHg 79%
    07:00 +26°C° 0 mm 2 mps 728 mmHg 75%
    08:00 +27°C° 0 mm 2 mps 728 mmHg 71%
    09:00 +29°C° 0 mm 3 mps 728 mmHg 68%
    10:00 +31°C° 0 mm 3 mps 727 mmHg 64%
    11:00 +33°C° 0 mm 3 mps 727 mmHg 66%
    12:00 +33°C° 0.1 mm 3 mps 726 mmHg 67%
    13:00 +33°C° 0.1 mm 3 mps 726 mmHg 67%
    14:00 +33°C° 0.1 mm 3 mps 725 mmHg 68%
    15:00 +31°C° 1 mm 2 mps 725 mmHg 73%
    16:00 +30°C° 1 mm 2 mps 725 mmHg 79%
    17:00 +28°C° 0 mm 1 mps 725 mmHg 85%
    18:00 +28°C° 2.4 mm 1 mps 726 mmHg 87%
    19:00 +27°C° 2.4 mm 1 mps 726 mmHg 89%
    20:00 +26°C° 2.4 mm 1 mps 726 mmHg 91%
    21:00 +26°C° 0.6 mm 1 mps 726 mmHg 91%
    22:00 +26°C° 0.6 mm 1 mps 727 mmHg 91%
    23:00 +26°C° 0.6 mm 1 mps 727 mmHg 91%

    Tomorrow, 20 October, Friday

    Time Temperature Precipitation Wind Pressure Humidity
    00:00 +26°C° 0 mm 1 mps 726 mmHg 91%
    01:00 +26°C° 0 mm 1 mps 726 mmHg 92%
    02:00 +25°C° 0 mm 1 mps 726 mmHg 93%
    03:00 +25°C° 0 mm 1 mps 726 mmHg 93%
    04:00 +25°C° 0 mm 1 mps 726 mmHg 93%
    05:00 +25°C° 0 mm 1 mps 726 mmHg 94%
    06:00 +26°C° 0.4 mm 1 mps 727 mmHg 91%
    07:00 +27°C° 0.4 mm 1 mps 727 mmHg 89%
    08:00 +28°C° 0.4 mm 1 mps 727 mmHg 86%
    09:00 +29°C° 1.5 mm 2 mps 727 mmHg 82%
    10:00 +30°C° 1.5 mm 2 mps 727 mmHg 79%
    11:00 +31°C° 1.5 mm 2 mps 727 mmHg 75%
    12:00 +31°C° 0.6 mm 2 mps 726 mmHg 72%
    13:00 +33°C° 0.6 mm 3 mps 726 mmHg 70%
    14:00 +33°C° 0.6 mm 3 mps 725 mmHg 67%
    15:00 +31°C° 0.5 mm 3 mps 725 mmHg 73%
    16:00 +30°C° 0.5 mm 2 mps 725 mmHg 79%
    17:00 +28°C° 0.5 mm 2 mps 726 mmHg 85%
    18:00 +28°C° 0.9 mm 2 mps 726 mmHg 88%
    19:00 +27°C° 0.9 mm 2 mps 727 mmHg 90%
    20:00 +26°C° 0.9 mm 2 mps 728 mmHg 93%
    21:00 +26°C° 0.7 mm 2 mps 728 mmHg 93%
    22:00 +26°C° 0.7 mm 2 mps 727 mmHg 93%
    23:00 +26°C° 0.7 mm 2 mps 727 mmHg 93%

    Day after tomorrow, 21 October, Saturday

    Time Temperature Precipitation Wind Pressure Humidity
    00:00 +25°C° 0 mm 2 mps 727 mmHg 94%
    01:00 +25°C° 0 mm 1 mps 727 mmHg 94%
    02:00 +25°C° 0 mm 1 mps 726 mmHg 94%
    03:00 +25°C° 0 mm 1 mps 726 mmHg 94%
    04:00 +25°C° 0 mm 1 mps 727 mmHg 95%
    05:00 +25°C° 0 mm 2 mps 727 mmHg 95%
    06:00 +26°C° 0 mm 2 mps 727 mmHg 91%
    07:00 +27°C° 0 mm 2 mps 728 mmHg 88%
    08:00 +28°C° 0 mm 2 mps 729 mmHg 84%
    09:00 +30°C° 0 mm 2 mps 728 mmHg 76%
    10:00 +31°C° 0 mm 2 mps 728 mmHg 69%
    11:00 +34°C° 0 mm 2 mps 728 mmHg 61%
    12:00 +34°C° 0 mm 2 mps 727 mmHg 59%
    13:00 +34°C° 0 mm 2 mps 727 mmHg 57%
    14:00 +35°C° 0 mm 2 mps 726 mmHg 56%
    15:00 +32°C° 0.3 mm 1 mps 726 mmHg 62%
    16:00 +31°C° 0.3 mm 1 mps 726 mmHg 69%
    17:00 +29°C° 0.3 mm 1 mps 726 mmHg 76%
    18:00 +29°C° 0.1 mm 1 mps 727 mmHg 78%
    19:00 +28°C° 0.1 mm 1 mps 727 mmHg 81%
    20:00 +27°C° 0.1 mm 1 mps 728 mmHg 83%
    21:00 +27°C° 0.2 mm 1 mps 728 mmHg 85%
    22:00 +26°C° 0.2 mm 1 mps 728 mmHg 87%
    23:00 +26°C° 0.2 mm 1 mps 728 mmHg 88%

    22 October, Sunday

    Time Temperature Precipitation Wind Pressure Humidity
    00:00 +26°C° 0.1 mm 1 mps 728 mmHg 89%
    01:00 +25°C° 0.1 mm 1 mps 727 mmHg 89%
    02:00 +25°C° 0.1 mm 1 mps 727 mmHg 90%
    03:00 +25°C° 0 mm 1 mps 727 mmHg 90%
    04:00 +25°C° 0 mm 1 mps 727 mmHg 91%
    05:00 +25°C° 0 mm 1 mps 728 mmHg 91%
    06:00 +26°C° 0 mm 1 mps 728 mmHg 87%
    07:00 +28°C° 0 mm 1 mps 729 mmHg 82%
    08:00 +29°C° 0 mm 1 mps 730 mmHg 77%
    09:00 +31°C° 0 mm 1 mps 730 mmHg 68%
    10:00 +32°C° 0 mm 1 mps 730 mmHg 59%
    11:00 +34°C° 0 mm 1 mps 729 mmHg 49%
    12:00 +35°C° 0 mm 2 mps 729 mmHg 47%
    13:00 +35°C° 0 mm 2 mps 728 mmHg 44%
    14:00 +35°C° 0 mm 2 mps 727 mmHg 42%
    15:00 +34°C° 0 mm 2 mps 727 mmHg 48%
    16:00 +31°C° 0 mm 2 mps 727 mmHg 54%
    17:00 +29°C° 0 mm 1 mps 728 mmHg 59%
    18:00 +28°C° 0 mm 1 mps 728 mmHg 60%
    19:00 +28°C° 0 mm 1 mps 729 mmHg 61%
    20:00 +27°C° 0 mm 1 mps 729 mmHg 62%
    21:00 +26°C° 0 mm 1 mps 729 mmHg 64%
    22:00 +26°C° 0 mm 1 mps 729 mmHg 65%
    23:00 +25°C° 0 mm 1 mps 729 mmHg 66%

    23 October, Monday

    Time Temperature Precipitation Wind Pressure Humidity
    00:00 +23°C° 0 mm 0 mps 729 mmHg 67%
    01:00 +22°C° 0 mm 0 mps 729 mmHg 68%
    02:00 +22°C° 0 mm 0 mps 728 mmHg 69%
    03:00 +22°C° 0 mm 0 mps 728 mmHg 70%
    04:00 +21°C° 0 mm 0 mps 729 mmHg 71%
    05:00 +21°C° 0 mm 0 mps 729 mmHg 73%
    06:00 +23°C° 0 mm 0 mps 730 mmHg 68%
    07:00 +24°C° 0 mm 0 mps 730 mmHg 64%
    08:00 +26°C° 0 mm 0 mps 731 mmHg 60%
    09:00 +28°C° 0 mm 0 mps 731 mmHg 54%
    10:00 +30°C° 0 mm 0 mps 731 mmHg 48%
    11:00 +34°C° 0 mm 1 mps 731 mmHg 41%
    12:00 +34°C° 0 mm 1 mps 730 mmHg 38%
    13:00 +34°C° 0 mm 1 mps 729 mmHg 34%
    14:00 +35°C° 0 mm 1 mps 729 mmHg 30%
    15:00 +32°C° 0 mm 1 mps 729 mmHg 36%
    16:00 +30°C° 0 mm 1 mps 729 mmHg 41%
    17:00 +28°C° 0 mm 1 mps 729 mmHg 47%
    18:00 +27°C° 0 mm 1 mps 730 mmHg 48%
    19:00 +26°C° 0 mm 1 mps 730 mmHg 49%
    20:00 +25°C° 0 mm 1 mps 731 mmHg 50%
    21:00 +25°C° 0 mm 1 mps 731 mmHg 51%
    22:00 +24°C° 0 mm 1 mps 731 mmHg 53%
    23:00 +24°C° 0 mm 1 mps 731 mmHg 55%

    24 October, Tuesday

    Time Temperature Precipitation Wind Pressure Humidity
    00:00 +23°C° 0 mm 1 mps 731 mmHg 56%
    01:00 +23°C° 0 mm 1 mps 731 mmHg 57%
    02:00 +21°C° 0 mm 0 mps 730 mmHg 58%
    03:00 +20°C° 0 mm 0 mps 731 mmHg 59%
    04:00 +20°C° 0 mm 0 mps 731 mmHg 60%
    05:00 +20°C° 0 mm 0 mps 731 mmHg 62%
    06:00 +22°C° 0 mm 0 mps 732 mmHg 59%
    07:00 +23°C° 0 mm 0 mps 733 mmHg 56%
    08:00 +25°C° 0 mm 0 mps 733 mmHg 54%
    09:00 +27°C° 0 mm 0 mps 733 mmHg 49%
    10:00 +30°C° 0 mm 0 mps 733 mmHg 44%
    11:00 +34°C° 0 mm 1 mps 733 mmHg 39%
    12:00 +34°C° 0 mm 1 mps 732 mmHg 36%
    13:00 +34°C° 0 mm 1 mps 731 mmHg 34%
    14:00 +35°C° 0 mm 2 mps 731 mmHg 32%
    15:00 +32°C° 0 mm 2 mps 731 mmHg 39%
    16:00 +30°C° 0 mm 1 mps 731 mmHg 45%
    17:00 +27°C° 0 mm 1 mps 731 mmHg 52%
    18:00 +27°C° 0 mm 1 mps 731 mmHg 53%
    19:00 +26°C° 0 mm 1 mps 732 mmHg 55%
    20:00 +25°C° 0 mm 1 mps 732 mmHg 56%
    21:00 +24°C° 0 mm 1 mps 732 mmHg 57%
    22:00 +24°C° 0 mm 1 mps 732 mmHg 58%
    23:00 +21°C° 0 mm 0 mps 732 mmHg 59%
    Show more